Pride — ZDFD7 — position and weather

sailwx.info

Track history (hours):
 
Tides and Currents Weather Stations Pressure Air Temp Water Temp Dewpoint Dewpoint Depression Visibility Wind Speed Wind Dir Waves Ship Positions

Pride

Last reported at 2014-Nov-27 01:29 UTC. Time now 2014-Nov-27 01:41 UTC.
Position N 51°17' E 004°21'.

Length 88 m; draft 5.1 m.

Type: Ship. MMSI: 236166000.

Date/timePositionNaut miles runAvg speedWind from/ knotsBaromVisibWave heightAir tempDewpointWater temp
2014-Nov-27 01:29N 51°17' E 004°21'0 0.0
2014-Nov-27 00:29N 51°17' E 004°21'0 0.0
2014-Nov-26 23:33N 51°17' E 004°21'0 0.0
2014-Nov-26 22:27N 51°17' E 004°21'0 0.0
2014-Nov-26 21:29N 51°17' E 004°21'0 0.0
2014-Nov-26 20:31N 51°17' E 004°21'0 0.0
2014-Nov-26 19:29N 51°17' E 004°21'0 0.0
2014-Nov-26 18:26N 51°17' E 004°21'0 0.0
2014-Nov-26 17:28N 51°17' E 004°21'0 0.0
2014-Nov-26 16:33N 51°17' E 004°21'0 0.0
2014-Nov-26 15:29N 51°17' E 004°21'0 0.0
2014-Nov-26 14:25N 51°17' E 004°21'0 0.0
2014-Nov-26 13:28N 51°17' E 004°21'0 0.0
2014-Nov-26 12:25N 51°17' E 004°21'0 0.0
2014-Nov-26 11:29N 51°17' E 004°21'0 0.0
2014-Nov-26 10:10N 51°17' E 004°21'0 0.0
2014-Nov-26 09:30N 51°17' E 004°21'0 0.0
2014-Nov-26 08:32N 51°17' E 004°21'0 0.0
2014-Nov-26 07:25N 51°17' E 004°21'0 0.0
2014-Nov-26 06:26N 51°17' E 004°21'0 0.0
2014-Nov-26 05:30N 51°17' E 004°21'0 0.0
2014-Nov-26 04:31N 51°17' E 004°21'0 0.0
2014-Nov-26 03:29N 51°17' E 004°21'0 0.0
2014-Nov-26 02:33N 51°17' E 004°21'0 0.0
2014-Nov-26 01:29N 51°17' E 004°21'0 0.0
2014-Nov-26 00:33N 51°17' E 004°21'0 0.0
2014-Nov-25 23:33N 51°17' E 004°21'1 0.8
2014-Nov-25 22:34N 51°17' E 004°20'0 0.0
2014-Nov-25 21:33N 51°17' E 004°20'4 4.0
2014-Nov-25 20:34N 51°20' E 004°16'5 5.2
2014-Nov-25 19:33N 51°23' E 004°09'5 5.1
2014-Nov-25 18:33N 51°25' E 004°02'5 4.8
2014-Nov-25 17:33N 51°22' E 003°55'7 7.2
2014-Nov-25 16:33N 51°23' E 003°44'8 8.1
2014-Nov-25 15:33N 51°27' E 003°33'9 8.6
2014-Nov-25 14:31N 51°34' E 003°24'9 9.4
2014-Nov-25 13:33N 51°42' E 003°16'6 1.0
2014-Nov-25 07:32N 51°47' E 003°19'0 0.0
2014-Nov-25 05:14N 51°47' E 003°19'0 0.0
2014-Nov-25 01:29N 51°47' E 003°19'0 0.1
2014-Nov-25 00:26N 51°47' E 003°19'0 0.0
2014-Nov-24 22:15N 51°47' E 003°19'0 0.0
2014-Nov-24 04:17N 51°47' E 003°19'60 8.7
2014-Nov-23 21:26N 52°29' E 002°10'1611.6
2014-Nov-23 20:04N 52°43' E 001°57'811.9
2014-Nov-23 19:26N 52°49' E 001°49'1112.0
2014-Nov-23 18:33N 52°55' E 001°35'1111.1
2014-Nov-23 17:33N 53°04' E 001°24'50 9.4
2014-Nov-23 12:17N 53°46' E 000°39'6 8.1
2014-Nov-23 11:33N 53°50' E 000°32'8 8.1
2014-Nov-23 10:33N 53°57' E 000°23'8 8.4
2014-Nov-23 09:33N 54°03' E 000°14'8 8.5
2014-Nov-23 08:33N 54°10' E 000°05'9 8.9
2014-Nov-23 07:33N 54°17' W 000°03'10 9.6
2014-Nov-23 06:33N 54°25' W 000°11'10 9.8
2014-Nov-23 05:33N 54°33' W 000°23'1110.6
2014-Nov-23 04:32N 54°38' W 000°39'1310.7
2014-Nov-23 03:20N 54°44' W 000°59'810.3
2014-Nov-23 02:32N 54°48' W 001°11'5 0.5
2014-Nov-22 15:08N 54°50' W 001°20'0 0.0
2014-Nov-22 14:29N 54°50' W 001°20'0 0.0
2014-Nov-22 13:26N 54°50' W 001°20'0 0.0
2014-Nov-22 11:32N 54°50' W 001°20'0 0.0
2014-Nov-22 10:23N 54°50' W 001°20'0 0.0
2014-Nov-22 09:27N 54°50' W 001°20'0 0.0
2014-Nov-21 15:18N 54°50' W 001°20'0 0.0
2014-Nov-21 09:29N 54°50' W 001°20'0 0.0
2014-Nov-20 13:29N 54°50' W 001°20'0 0.0
2014-Nov-20 11:19N 54°50' W 001°20'0 0.0
2014-Nov-19 14:09N 54°50' W 001°20'0 0.0
2014-Nov-19 13:22N 54°50' W 001°20'0 0.0
2014-Nov-19 12:33N 54°50' W 001°20'2 2.0
2014-Nov-19 11:32N 54°51' W 001°16'72 6.0
2014-Nov-18 23:33N 55°57' W 002°04'8 7.5
2014-Nov-18 22:33N 55°60' W 002°17'7 7.1
2014-Nov-18 21:33N 56°03' W 002°28'7 6.7
2014-Nov-18 20:33N 56°06' W 002°39'7 6.6
2014-Nov-18 19:33N 56°05' W 002°51'9 8.7
2014-Nov-18 18:33N 56°03' W 003°05'10 9.7
2014-Nov-18 17:33N 56°00' W 003°22'1010.4
2014-Nov-18 16:33N 56°02' W 003°40'1 1.2
2014-Nov-18 15:31N 56°02' W 003°42'0 0.0
2014-Nov-18 14:32N 56°02' W 003°42'0 0.0
2014-Nov-18 13:32N 56°02' W 003°42'0 0.0
2014-Nov-18 12:33N 56°02' W 003°42'0 0.0
2014-Nov-18 11:31N 56°02' W 003°42'0 0.0
2014-Nov-18 10:31N 56°02' W 003°42'0 0.0
2014-Nov-18 09:31N 56°02' W 003°42'0 0.0
2014-Nov-18 08:28N 56°02' W 003°42'0 0.0
2014-Nov-18 07:31N 56°02' W 003°42'0 0.0
2014-Nov-18 06:31N 56°02' W 003°42'0 0.0
2014-Nov-18 05:32N 56°02' W 003°42'0 0.0
2014-Nov-18 04:30N 56°02' W 003°42'0 0.0
2014-Nov-18 03:33N 56°02' W 003°42'0 0.0
2014-Nov-18 02:33N 56°02' W 003°42'0 0.0
2014-Nov-18 01:31N 56°02' W 003°42'0 0.0
2014-Nov-18 00:32N 56°02' W 003°42'0 0.0
2014-Nov-17 23:32N 56°02' W 003°42'0 0.0
2014-Nov-17 22:33N 56°02' W 003°42'0 0.0
2014-Nov-17 21:33N 56°02' W 003°42'0 0.0
2014-Nov-17 20:31N 56°02' W 003°42'0 0.0
2014-Nov-17 19:33N 56°02' W 003°42'0 0.0
2014-Nov-17 18:32N 56°02' W 003°42'0 0.0
2014-Nov-17 17:33N 56°02' W 003°42'0 0.0
2014-Nov-17 16:28N 56°02' W 003°42'0 0.0
2014-Nov-17 15:31N 56°02' W 003°42'0 0.0
2014-Nov-17 14:31N 56°02' W 003°42'0 0.0
2014-Nov-17 13:31N 56°02' W 003°42'0 0.0
2014-Nov-17 12:33N 56°02' W 003°42'0 0.0
2014-Nov-17 11:31N 56°02' W 003°42'0 0.0
2014-Nov-17 10:33N 56°02' W 003°42'0 0.0
2014-Nov-17 09:32N 56°02' W 003°42'0 0.0
2014-Nov-17 08:32N 56°02' W 003°42'0 0.0
2014-Nov-17 07:33N 56°02' W 003°42'0 0.0
2014-Nov-17 06:32N 56°02' W 003°42'0 0.0
2014-Nov-17 05:31N 56°02' W 003°42'0 0.0
2014-Nov-17 04:31N 56°02' W 003°42'0 0.0
2014-Nov-17 03:32N 56°02' W 003°42'0 0.0
2014-Nov-17 02:32N 56°02' W 003°42'0 0.0
2014-Nov-17 01:32N 56°02' W 003°42'  
Track history (hours):
 
Tides and Currents Weather Stations Pressure Air Temp Water Temp Dewpoint Dewpoint Depression Visibility Wind Speed Wind Dir Waves Ship Positions

Pride

Last reported at 2014-Nov-27 01:29 UTC. Time now 2014-Nov-27 01:41 UTC.
Position N 51°17' E 004°21'.

Length 88 m; draft 5.1 m.

Type: Ship. MMSI: 236166000.

Date/timePositionNaut miles runAvg speedWind from/ knotsBaromVisibWave heightAir tempDewpointWater temp
2014-Nov-27 01:29N 51°17' E 004°21'0 0.0
2014-Nov-27 00:29N 51°17' E 004°21'0 0.0
2014-Nov-26 23:33N 51°17' E 004°21'0 0.0
2014-Nov-26 22:27N 51°17' E 004°21'0 0.0
2014-Nov-26 21:29N 51°17' E 004°21'0 0.0
2014-Nov-26 20:31N 51°17' E 004°21'0 0.0
2014-Nov-26 19:29N 51°17' E 004°21'0 0.0
2014-Nov-26 18:26N 51°17' E 004°21'0 0.0
2014-Nov-26 17:28N 51°17' E 004°21'0 0.0
2014-Nov-26 16:33N 51°17' E 004°21'0 0.0
2014-Nov-26 15:29N 51°17' E 004°21'0 0.0
2014-Nov-26 14:25N 51°17' E 004°21'0 0.0
2014-Nov-26 13:28N 51°17' E 004°21'0 0.0
2014-Nov-26 12:25N 51°17' E 004°21'0 0.0
2014-Nov-26 11:29N 51°17' E 004°21'0 0.0
2014-Nov-26 10:10N 51°17' E 004°21'0 0.0
2014-Nov-26 09:30N 51°17' E 004°21'0 0.0
2014-Nov-26 08:32N 51°17' E 004°21'0 0.0
2014-Nov-26 07:25N 51°17' E 004°21'0 0.0
2014-Nov-26 06:26N 51°17' E 004°21'0 0.0
2014-Nov-26 05:30N 51°17' E 004°21'0 0.0
2014-Nov-26 04:31N 51°17' E 004°21'0 0.0
2014-Nov-26 03:29N 51°17' E 004°21'0 0.0
2014-Nov-26 02:33N 51°17' E 004°21'0 0.0
2014-Nov-26 01:29N 51°17' E 004°21'0 0.0
2014-Nov-26 00:33N 51°17' E 004°21'0 0.0
2014-Nov-25 23:33N 51°17' E 004°21'1 0.8
2014-Nov-25 22:34N 51°17' E 004°20'0 0.0
2014-Nov-25 21:33N 51°17' E 004°20'4 4.0
2014-Nov-25 20:34N 51°20' E 004°16'5 5.2
2014-Nov-25 19:33N 51°23' E 004°09'5 5.1
2014-Nov-25 18:33N 51°25' E 004°02'5 4.8
2014-Nov-25 17:33N 51°22' E 003°55'7 7.2
2014-Nov-25 16:33N 51°23' E 003°44'8 8.1
2014-Nov-25 15:33N 51°27' E 003°33'9 8.6
2014-Nov-25 14:31N 51°34' E 003°24'9 9.4
2014-Nov-25 13:33N 51°42' E 003°16'6 1.0
2014-Nov-25 07:32N 51°47' E 003°19'0 0.0
2014-Nov-25 05:14N 51°47' E 003°19'0 0.0
2014-Nov-25 01:29N 51°47' E 003°19'0 0.1
2014-Nov-25 00:26N 51°47' E 003°19'0 0.0
2014-Nov-24 22:15N 51°47' E 003°19'0 0.0
2014-Nov-24 04:17N 51°47' E 003°19'60 8.7
2014-Nov-23 21:26N 52°29' E 002°10'1611.6
2014-Nov-23 20:04N 52°43' E 001°57'811.9
2014-Nov-23 19:26N 52°49' E 001°49'1112.0
2014-Nov-23 18:33N 52°55' E 001°35'1111.1
2014-Nov-23 17:33N 53°04' E 001°24'50 9.4
2014-Nov-23 12:17N 53°46' E 000°39'6 8.1
2014-Nov-23 11:33N 53°50' E 000°32'8 8.1
2014-Nov-23 10:33N 53°57' E 000°23'8 8.4
2014-Nov-23 09:33N 54°03' E 000°14'8 8.5
2014-Nov-23 08:33N 54°10' E 000°05'9 8.9
2014-Nov-23 07:33N 54°17' W 000°03'10 9.6
2014-Nov-23 06:33N 54°25' W 000°11'10 9.8
2014-Nov-23 05:33N 54°33' W 000°23'1110.6
2014-Nov-23 04:32N 54°38' W 000°39'1310.7
2014-Nov-23 03:20N 54°44' W 000°59'810.3
2014-Nov-23 02:32N 54°48' W 001°11'5 0.5
2014-Nov-22 15:08N 54°50' W 001°20'0 0.0
2014-Nov-22 14:29N 54°50' W 001°20'0 0.0
2014-Nov-22 13:26N 54°50' W 001°20'0 0.0
2014-Nov-22 11:32N 54°50' W 001°20'0 0.0
2014-Nov-22 10:23N 54°50' W 001°20'0 0.0
2014-Nov-22 09:27N 54°50' W 001°20'0 0.0
2014-Nov-21 15:18N 54°50' W 001°20'0 0.0
2014-Nov-21 09:29N 54°50' W 001°20'0 0.0
2014-Nov-20 13:29N 54°50' W 001°20'0 0.0
2014-Nov-20 11:19N 54°50' W 001°20'0 0.0
2014-Nov-19 14:09N 54°50' W 001°20'0 0.0
2014-Nov-19 13:22N 54°50' W 001°20'0 0.0
2014-Nov-19 12:33N 54°50' W 001°20'2 2.0
2014-Nov-19 11:32N 54°51' W 001°16'72 6.0
2014-Nov-18 23:33N 55°57' W 002°04'8 7.5
2014-Nov-18 22:33N 55°60' W 002°17'7 7.1
2014-Nov-18 21:33N 56°03' W 002°28'7 6.7
2014-Nov-18 20:33N 56°06' W 002°39'7 6.6
2014-Nov-18 19:33N 56°05' W 002°51'9 8.7
2014-Nov-18 18:33N 56°03' W 003°05'10 9.7
2014-Nov-18 17:33N 56°00' W 003°22'1010.4
2014-Nov-18 16:33N 56°02' W 003°40'1 1.2
2014-Nov-18 15:31N 56°02' W 003°42'0 0.0
2014-Nov-18 14:32N 56°02' W 003°42'0 0.0
2014-Nov-18 13:32N 56°02' W 003°42'0 0.0
2014-Nov-18 12:33N 56°02' W 003°42'0 0.0
2014-Nov-18 11:31N 56°02' W 003°42'0 0.0
2014-Nov-18 10:31N 56°02' W 003°42'0 0.0
2014-Nov-18 09:31N 56°02' W 003°42'0 0.0
2014-Nov-18 08:28N 56°02' W 003°42'0 0.0
2014-Nov-18 07:31N 56°02' W 003°42'0 0.0
2014-Nov-18 06:31N 56°02' W 003°42'0 0.0
2014-Nov-18 05:32N 56°02' W 003°42'0 0.0
2014-Nov-18 04:30N 56°02' W 003°42'0 0.0
2014-Nov-18 03:33N 56°02' W 003°42'0 0.0
2014-Nov-18 02:33N 56°02' W 003°42'0 0.0
2014-Nov-18 01:31N 56°02' W 003°42'0 0.0
2014-Nov-18 00:32N 56°02' W 003°42'0 0.0
2014-Nov-17 23:32N 56°02' W 003°42'0 0.0
2014-Nov-17 22:33N 56°02' W 003°42'0 0.0
2014-Nov-17 21:33N 56°02' W 003°42'0 0.0
2014-Nov-17 20:31N 56°02' W 003°42'0 0.0
2014-Nov-17 19:33N 56°02' W 003°42'0 0.0
2014-Nov-17 18:32N 56°02' W 003°42'0 0.0
2014-Nov-17 17:33N 56°02' W 003°42'0 0.0
2014-Nov-17 16:28N 56°02' W 003°42'0 0.0
2014-Nov-17 15:31N 56°02' W 003°42'0 0.0
2014-Nov-17 14:31N 56°02' W 003°42'0 0.0
2014-Nov-17 13:31N 56°02' W 003°42'0 0.0
2014-Nov-17 12:33N 56°02' W 003°42'0 0.0
2014-Nov-17 11:31N 56°02' W 003°42'0 0.0
2014-Nov-17 10:33N 56°02' W 003°42'0 0.0
2014-Nov-17 09:32N 56°02' W 003°42'0 0.0
2014-Nov-17 08:32N 56°02' W 003°42'0 0.0
2014-Nov-17 07:33N 56°02' W 003°42'0 0.0
2014-Nov-17 06:32N 56°02' W 003°42'0 0.0
2014-Nov-17 05:31N 56°02' W 003°42'0 0.0
2014-Nov-17 04:31N 56°02' W 003°42'0 0.0
2014-Nov-17 03:32N 56°02' W 003°42'0 0.0
2014-Nov-17 02:32N 56°02' W 003°42'0 0.0
2014-Nov-17 01:32N 56°02' W 003°42'  

Dump ship's entire track history